| time (UTC) | temp C | wind direction | speed KPH | gust KPH | rain 1hr cm | rain 24hr cm | rain mn cm | humidity % | barometer mb |
| 20260506153439 | 19 | 0.0 | 0.0 | 0.00 | 0.00 | 0.00 | 41 | 918.3 | |
| 20260506152939 | 19 | 0.0 | 0.0 | 0.00 | 0.00 | 0.00 | 40 | 918.4 | |
| 20260506152439 | 20 | 0.0 | 0.0 | 0.00 | 0.00 | 0.00 | 40 | 918.4 | |
| 20260506151939 | 20 | 0.0 | 0.0 | 0.00 | 0.00 | 0.00 | 39 | 918.4 | |
| 20260506151439 | 20 | 0.0 | 0.0 | 0.00 | 0.00 | 0.00 | 38 | 918.3 | |
| 20260506150939 | 20 | 0.0 | 0.0 | 0.00 | 0.00 | 0.00 | 39 | 918.4 | |
| 20260506150439 | 19 | 0.0 | 0.0 | 0.00 | 0.00 | 0.00 | 39 | 918.4 | |
| 20260506145939 | 20 | 0.0 | 0.0 | 0.00 | 0.00 | 0.00 | 37 | 918.3 | |
| 20260506145439 | 21 | 0.0 | 0.0 | 0.00 | 0.00 | 0.00 | 37 | 918.3 | |
| 20260506144939 | 21 | 0.0 | 0.0 | 0.00 | 0.00 | 0.00 | 37 | 918.3 | |
| 20260506144439 | 20 | 0.0 | 0.0 | 0.00 | 0.00 | 0.00 | 39 | 918.3 | |
| 20260506143939 | 20 | 0.0 | 0.0 | 0.00 | 0.00 | 0.00 | 39 | 918.4 | |
| 20260506143439 | 20 | 0.0 | 0.0 | 0.00 | 0.00 | 0.00 | 38 | 918.5 | |
| 20260506142939 | 20 | 0.0 | 0.0 | 0.00 | 0.00 | 0.00 | 38 | 918.5 | |
| 20260506142439 | 20 | 0.0 | 0.0 | 0.00 | 0.00 | 0.00 | 37 | 918.5 | |
| 20260506141939 | 20 | 0.0 | 0.0 | 0.00 | 0.00 | 0.00 | 38 | 918.5 | |
| 20260506141439 | 21 | 0.0 | 0.0 | 0.00 | 0.00 | 0.00 | 37 | 918.4 | |
| 20260506140939 | 20 | 0.0 | 0.0 | 0.00 | 0.00 | 0.00 | 38 | 918.5 | |
| 20260506140439 | 20 | 0.0 | 0.0 | 0.00 | 0.00 | 0.00 | 36 | 918.5 | |
| 20260506135939 | 21 | 0.0 | 0.0 | 0.00 | 0.00 | 0.00 | 36 | 918.6 | |
| 20260506135439 | 22 | 0.0 | 0.0 | 0.00 | 0.00 | 0.00 | 34 | 918.5 | |
| 20260506134939 | 22 | 0.0 | 0.0 | 0.00 | 0.00 | 0.00 | 34 | 918.5 | |
| 20260506134439 | 22 | 0.0 | 0.0 | 0.00 | 0.00 | 0.00 | 33 | 918.6 | |
| 20260506133939 | 22 | 0.0 | 0.0 | 0.00 | 0.00 | 0.00 | 34 | 918.6 | |
| 20260506133439 | 22 | 0.0 | 0.0 | 0.00 | 0.00 | 0.00 | 34 | 918.7 | |
| 20260506132939 | 22 | 0.0 | 0.0 | 0.00 | 0.00 | 0.00 | 33 | 918.6 | |
| 20260506132439 | 22 | 0.0 | 0.0 | 0.00 | 0.00 | 0.00 | 32 | 918.7 | |
| 20260506131939 | 23 | 0.0 | 0.0 | 0.00 | 0.00 | 0.00 | 33 | 918.7 | |
| 20260506131439 | 21 | 0.0 | 0.0 | 0.00 | 0.00 | 0.00 | 35 | 918.9 | |
| 20260506130939 | 21 | 0.0 | 0.0 | 0.00 | 0.00 | 0.00 | 34 | 919.0 | |
| 20260506130439 | 22 | 0.0 | 0.0 | 0.00 | 0.00 | 0.00 | 34 | 918.9 | |
| 20260506125939 | 22 | 0.0 | 0.0 | 0.00 | 0.00 | 0.00 | 33 | 918.9 | |
| 20260506125439 | 22 | 0.0 | 0.0 | 0.00 | 0.00 | 0.00 | 33 | 919.0 | |
| 20260506124939 | 22 | 0.0 | 0.0 | 0.00 | 0.00 | 0.00 | 33 | 919.1 | |
| 20260506124439 | 22 | 0.0 | 0.0 | 0.00 | 0.00 | 0.00 | 33 | 919.1 | |
| 20260506123939 | 23 | 0.0 | 0.0 | 0.00 | 0.00 | 0.00 | 30 | 918.9 | |
| 20260506123439 | 24 | 0.0 | 0.0 | 0.00 | 0.00 | 0.00 | 30 | 919.0 | |
| 20260506122939 | 26 | 0.0 | 0.0 | 0.00 | 0.00 | 0.00 | 28 | 918.8 | |
| 20260506122439 | 25 | 0.0 | 0.0 | 0.00 | 0.00 | 0.00 | 30 | 918.8 | |
| 20260506121939 | 25 | 0.0 | 0.0 | 0.00 | 0.00 | 0.00 | 30 | 918.8 | |
| 20260506121439 | 25 | 0.0 | 0.0 | 0.00 | 0.00 | 0.00 | 27 | 918.7 | |
| 20260506120939 | 26 | 0.0 | 0.0 | 0.00 | 0.00 | 0.00 | 26 | 918.6 | |
| 20260506120439 | 26 | 0.0 | 0.0 | 0.00 | 0.00 | 0.00 | 28 | 918.8 | |
| 20260506115939 | 25 | 0.0 | 0.0 | 0.00 | 0.00 | 0.00 | 28 | 918.9 | |
| 20260506115439 | 25 | 0.0 | 0.0 | 0.00 | 0.00 | 0.00 | 29 | 918.9 | |
| 20260506114939 | 25 | 0.0 | 0.0 | 0.00 | 0.00 | 0.00 | 28 | 918.8 | |
| 20260506114439 | 24 | 0.0 | 0.0 | 0.00 | 0.00 | 0.00 | 29 | 918.9 | |
| 20260506113939 | 25 | 0.0 | 0.0 | 0.00 | 0.00 | 0.00 | 28 | 918.8 | |
| 20260506113439 | 25 | 0.0 | 0.0 | 0.00 | 0.00 | 0.00 | 28 | 918.9 | |
| 20260506112939 | 25 | 0.0 | 0.0 | 0.00 | 0.00 | 0.00 | 28 | 919.1 | |
| 20260506112001 | 26 | 0.0 | 0.0 | 0.00 | 0.00 | 0.00 | 26 | 919.3 | |
| 20260506111501 | 26 | 0.0 | 0.0 | 0.00 | 0.00 | 0.00 | 26 | 919.3 | |
| 20260506111001 | 26 | 0.0 | 0.0 | 0.00 | 0.00 | 0.00 | 27 | 919.3 | |
| 20260506110501 | 26 | 0.0 | 0.0 | 0.00 | 0.00 | 0.00 | 26 | 919.3 | |
| 20260506110001 | 25 | 0.0 | 0.0 | 0.00 | 0.00 | 0.00 | 26 | 919.4 | |
| 20260506105501 | 25 | 0.0 | 0.0 | 0.00 | 0.00 | 0.00 | 28 | 919.5 | |
| 20260506105001 | 25 | 0.0 | 0.0 | 0.00 | 0.00 | 0.00 | 27 | 919.5 | |
| 20260506104501 | 25 | 0.0 | 0.0 | 0.00 | 0.00 | 0.00 | 28 | 919.4 | |
| 20260506104001 | 22 | 0.0 | 0.0 | 0.00 | 0.00 | 0.00 | 27 | 919.5 | |
| 20260506103501 | 22 | 0.0 | 0.0 | 0.00 | 0.00 | 0.00 | 30 | 919.6 | |
| 20260506103001 | 21 | 0.0 | 0.0 | 0.00 | 0.00 | 0.00 | 29 | 919.7 | |
| 20260506102501 | 21 | 0.0 | 0.0 | 0.00 | 0.00 | 0.00 | 28 | 919.7 | |
| 20260506102001 | 21 | 0.0 | 0.0 | 0.00 | 0.00 | 0.00 | 29 | 919.7 | |
| 20260506101501 | 21 | 0.0 | 0.0 | 0.00 | 0.00 | 0.00 | 29 | 919.8 | |
| 20260506101001 | 22 | 0.0 | 0.0 | 0.00 | 0.00 | 0.00 | 26 | 919.8 | |
| 20260506100501 | 24 | 0.0 | 0.0 | 0.00 | 0.00 | 0.00 | 27 | 919.8 | |
| 20260506100001 | 22 | 0.0 | 0.0 | 0.00 | 0.00 | 0.00 | 28 | 919.8 | |
| 20260506095501 | 21 | 0.0 | 0.0 | 0.00 | 0.00 | 0.00 | 28 | 919.9 | |
| 20260506095001 | 21 | 0.0 | 0.0 | 0.00 | 0.00 | 0.00 | 28 | 919.9 | |
| 20260506094501 | 21 | 0.0 | 0.0 | 0.00 | 0.00 | 0.00 | 26 | 920.0 | |
| 20260506094001 | 22 | 0.0 | 0.0 | 0.00 | 0.00 | 0.00 | 26 | 919.8 | |
| 20260506093501 | 25 | 0.0 | 0.0 | 0.00 | 0.00 | 0.00 | 24 | 919.7 | |
| 20260506093001 | 26 | 0.0 | 0.0 | 0.00 | 0.00 | 0.00 | 22 | 919.7 | |
| 20260506092501 | 28 | 0.0 | 0.0 | 0.00 | 0.00 | 0.00 | 21 | 919.7 | |
| 20260506092001 | 26 | 0.0 | 0.0 | 0.00 | 0.00 | 0.00 | 25 | 919.7 | |
| 20260506091501 | 27 | 0.0 | 0.0 | 0.00 | 0.00 | 0.00 | 23 | 919.8 | |
| 20260506091001 | 29 | 0.0 | 0.0 | 0.00 | 0.00 | 0.00 | 23 | 919.7 | |
| 20260506090501 | 29 | 0.0 | 0.0 | 0.00 | 0.00 | 0.00 | 24 | 919.7 | |
| 20260506090001 | 26 | 0.0 | 0.0 | 0.00 | 0.00 | 0.00 | 28 | 920.0 | |
| 20260506085501 | 23 | 0.0 | 0.0 | 0.00 | 0.00 | 0.00 | 30 | 919.9 | |
| 20260506085001 | 22 | 0.0 | 0.0 | 0.00 | 0.00 | 0.00 | 32 | 920.1 | |
| 20260506084501 | 24 | 0.0 | 0.0 | 0.00 | 0.00 | 0.00 | 28 | 920.0 | |
| 20260506084001 | 27 | 0.0 | 0.0 | 0.00 | 0.00 | 0.00 | 26 | 919.9 | |
| 20260506083501 | 28 | 0.0 | 0.0 | 0.00 | 0.00 | 0.00 | 24 | 919.9 | |
| 20260506083001 | 28 | 0.0 | 0.0 | 0.00 | 0.00 | 0.00 | 24 | 920.0 | |
| 20260506082501 | 31 | 0.0 | 0.0 | 0.00 | 0.00 | 0.00 | 21 | 919.9 | |
| 20260506082001 | 31 | 0.0 | 0.0 | 0.00 | 0.00 | 0.00 | 21 | 919.9 | |
| 20260506081501 | 30 | 0.0 | 0.0 | 0.00 | 0.00 | 0.00 | 22 | 919.9 | |
| 20260506081001 | 29 | 0.0 | 0.0 | 0.00 | 0.00 | 0.00 | 21 | 919.9 | |
| 20260506080501 | 30 | 0.0 | 0.0 | 0.00 | 0.00 | 0.00 | 21 | 920.0 | |
| 20260506073501 | 30 | 0.0 | 0.0 | 0.00 | 0.00 | 0.00 | 23 | 920.1 | |
| 20260506073001 | 30 | 0.0 | 0.0 | 0.00 | 0.00 | 0.00 | 23 | 920.2 | |
| 20260506072501 | 27 | 0.0 | 0.0 | 0.00 | 0.00 | 0.00 | 23 | 920.3 | |
| 20260506072001 | 28 | 0.0 | 0.0 | 0.00 | 0.00 | 0.00 | 24 | 920.2 | |
| 20260506071501 | 27 | 0.0 | 0.0 | 0.00 | 0.00 | 0.00 | 26 | 920.4 | |
| 20260506071001 | 26 | 0.0 | 0.0 | 0.00 | 0.00 | 0.00 | 28 | 920.4 | |
| 20260506070501 | 28 | 0.0 | 0.0 | 0.00 | 0.00 | 0.00 | 28 | 920.4 | |
| 20260506062501 | 28 | 0.0 | 0.0 | 0.00 | 0.00 | 0.00 | 26 | 920.6 | |
| 20260506062001 | 25 | 0.0 | 0.0 | 0.00 | 0.00 | 0.00 | 32 | 920.8 | |
| 20260506061501 | 26 | 0.0 | 0.0 | 0.00 | 0.00 | 0.00 | 30 | 920.7 | |
| 20260506061001 | 24 | 0.0 | 0.0 | 0.00 | 0.00 | 0.00 | 32 | 920.9 | |
| 20260506060501 | 26 | 0.0 | 0.0 | 0.00 | 0.00 | 0.00 | 30 | 920.9 | |
| 20260506051001 | 5 | 0.0 | 0.0 | 0.00 | 0.00 | 0.00 | 73 | 921.9 | |
| 20260506050501 | 5 | 0.0 | 0.0 | 0.00 | 0.00 | 0.00 | 72 | 922.0 | |
| 20260506045001 | 6 | 0.0 | 0.0 | 0.00 | 0.00 | 0.00 | 72 | 922.0 | |
| 20260506044501 | 6 | 0.0 | 0.0 | 0.00 | 0.00 | 0.00 | 74 | 921.8 | |
| 20260506044001 | 6 | 0.0 | 0.0 | 0.00 | 0.00 | 0.00 | 75 | 921.9 | |
| 20260506043501 | 5 | 0.0 | 0.0 | 0.00 | 0.00 | 0.00 | 76 | 921.9 | |
| 20260506043001 | 5 | 0.0 | 0.0 | 0.00 | 0.00 | 0.00 | 76 | 921.9 | |
| 20260506042501 | 4 | 0.0 | 0.0 | 0.00 | 0.00 | 0.00 | 75 | 921.9 | |
| 20260506042001 | 5 | 0.0 | 0.0 | 0.00 | 0.00 | 0.00 | 75 | 921.8 | |
| 20260506041501 | 5 | 0.0 | 0.0 | 0.00 | 0.00 | 0.00 | 76 | 921.8 | |
| 20260506041001 | 4 | 0.0 | 0.0 | 0.00 | 0.00 | 0.00 | 75 | 921.8 | |
| 20260506040501 | 5 | 0.0 | 0.0 | 0.00 | 0.00 | 0.00 | 75 | 921.7 | |
| 20260506040001 | 4 | 0.0 | 0.0 | 0.00 | 0.00 | 0.00 | 75 | 921.6 | |
| 20260506035501 | 4 | 0.0 | 0.0 | 0.00 | 0.00 | 0.00 | 74 | 921.6 | |
| 20260506035001 | 5 | 0.0 | 0.0 | 0.00 | 0.00 | 0.00 | 75 | 921.6 | |
| 20260506034501 | 5 | 0.0 | 0.0 | 0.00 | 0.00 | 0.00 | 75 | 921.6 | |
| 20260506034001 | 5 | 0.0 | 0.0 | 0.00 | 0.00 | 0.00 | 75 | 921.6 | |
| 20260506033501 | 5 | 0.0 | 0.0 | 0.00 | 0.00 | 0.00 | 74 | 921.6 | |
| 20260506033001 | 5 | 0.0 | 0.0 | 0.00 | 0.00 | 0.00 | 75 | 921.7 | |
| 20260506032501 | 5 | 0.0 | 0.0 | 0.00 | 0.00 | 0.00 | 74 | 921.7 | |
| 20260506032001 | 4 | 0.0 | 0.0 | 0.00 | 0.00 | 0.00 | 74 | 921.6 | |
| 20260506031501 | 5 | 0.0 | 0.0 | 0.00 | 0.00 | 0.00 | 73 | 921.6 | |
| 20260506031001 | 5 | 0.0 | 0.0 | 0.00 | 0.00 | 0.00 | 73 | 921.6 | |
| 20260506030501 | 5 | 0.0 | 0.0 | 0.00 | 0.00 | 0.00 | 73 | 921.6 | |
| 20260506030001 | 5 | 0.0 | 0.0 | 0.00 | 0.00 | 0.00 | 73 | 921.6 | |
| 20260506025501 | 5 | 0.0 | 0.0 | 0.00 | 0.00 | 0.00 | 74 | 921.6 | |
| 20260506025001 | 5 | 0.0 | 0.0 | 0.00 | 0.00 | 0.00 | 74 | 921.5 | |
| 20260506024501 | 5 | 0.0 | 0.0 | 0.00 | 0.00 | 0.00 | 74 | 921.5 | |
| 20260506024001 | 5 | 0.0 | 0.0 | 0.00 | 0.00 | 0.00 | 74 | 921.4 | |
| 20260506023501 | 5 | 0.0 | 0.0 | 0.00 | 0.00 | 0.00 | 74 | 921.4 | |
| 20260506023001 | 5 | 0.0 | 0.0 | 0.00 | 0.00 | 0.00 | 72 | 921.5 | |
| 20260506022501 | 5 | 0.0 | 0.0 | 0.00 | 0.00 | 0.00 | 72 | 921.4 | |
| 20260506022001 | 6 | 0.0 | 0.0 | 0.00 | 0.00 | 0.00 | 73 | 921.3 | |
| 20260506021501 | 6 | 0.0 | 0.0 | 0.00 | 0.00 | 0.00 | 74 | 921.3 | |
| 20260506021001 | 5 | 0.0 | 0.0 | 0.00 | 0.00 | 0.00 | 74 | 921.3 | |
| 20260506020501 | 5 | 0.0 | 0.0 | 0.00 | 0.00 | 0.00 | 74 | 921.3 | |
| 20260506020001 | 5 | 0.0 | 0.0 | 0.00 | 0.00 | 0.00 | 73 | 921.3 | |
| 20260506015501 | 5 | 0.0 | 0.0 | 0.00 | 0.00 | 0.00 | 72 | 921.3 | |
| 20260506015001 | 6 | 0.0 | 0.0 | 0.00 | 0.00 | 0.00 | 72 | 921.2 | |
| 20260506014501 | 6 | 0.0 | 0.0 | 0.00 | 0.00 | 0.00 | 72 | 921.2 | |
| 20260506014001 | 6 | 0.0 | 0.0 | 0.00 | 0.00 | 0.00 | 72 | 921.2 | |
| 20260506013501 | 6 | 0.0 | 0.0 | 0.00 | 0.00 | 0.00 | 71 | 921.1 | |
| 20260506013001 | 6 | 0.0 | 0.0 | 0.00 | 0.00 | 0.00 | 71 | 921.1 | |
| 20260506012501 | 6 | 0.0 | 0.0 | 0.00 | 0.00 | 0.00 | 71 | 921.1 | |
| 20260506012001 | 7 | 0.0 | 0.0 | 0.00 | 0.00 | 0.00 | 72 | 921.1 | |
| 20260506011501 | 6 | 0.0 | 0.0 | 0.00 | 0.00 | 0.00 | 72 | 921.1 | |
| 20260506011001 | 6 | 0.0 | 0.0 | 0.00 | 0.00 | 0.00 | 72 | 921.1 | |
| 20260506010501 | 5 | 0.0 | 0.0 | 0.00 | 0.00 | 0.00 | 72 | 921.1 | |
| 20260506010001 | 6 | 0.0 | 0.0 | 0.00 | 0.00 | 0.00 | 70 | 921.0 | |
| 20260506005501 | 7 | 0.0 | 0.0 | 0.00 | 0.00 | 0.00 | 70 | 920.9 | |
| 20260506005001 | 7 | 0.0 | 0.0 | 0.00 | 0.00 | 0.00 | 70 | 920.8 | |
| 20260506004501 | 7 | 0.0 | 0.0 | 0.00 | 0.00 | 0.00 | 70 | 920.8 | |
| 20260506004001 | 7 | 0.0 | 0.0 | 0.00 | 0.00 | 0.00 | 70 | 920.8 | |
| 20260506003501 | 6 | 0.0 | 0.0 | 0.00 | 0.00 | 0.00 | 70 | 920.8 | |
| 20260506003001 | 6 | 0.0 | 0.0 | 0.00 | 0.00 | 0.00 | 69 | 920.8 | |
| 20260506002501 | 7 | 0.0 | 0.0 | 0.00 | 0.00 | 0.00 | 68 | 920.7 | |
| 20260506002001 | 7 | 0.0 | 0.0 | 0.00 | 0.00 | 0.00 | 68 | 920.7 | |
| 20260506001501 | 7 | 0.0 | 0.0 | 0.00 | 0.00 | 0.00 | 69 | 920.7 | |
| 20260506001001 | 7 | 0.0 | 0.0 | 0.00 | 0.00 | 0.00 | 69 | 920.7 | |
| 20260506000501 | 7 | 0.0 | 0.0 | 0.00 | 0.00 | 0.00 | 68 | 920.7 | |
| 20260506000001 | 7 | 0.0 | 0.0 | 0.00 | 0.00 | 0.00 | 68 | 920.7 | |
| 20260505235501 | 7 | 0.0 | 0.0 | 0.00 | 0.00 | 0.00 | 68 | 920.7 | |
| 20260505235001 | 7 | 0.0 | 0.0 | 0.00 | 0.00 | 0.00 | 68 | 920.6 | |
| 20260505234501 | 7 | 0.0 | 0.0 | 0.00 | 0.00 | 0.00 | 67 | 920.6 | |
| 20260505234001 | 7 | 0.0 | 0.0 | 0.00 | 0.00 | 0.00 | 66 | 920.7 | |
| 20260505233501 | 8 | 0.0 | 0.0 | 0.00 | 0.00 | 0.00 | 66 | 920.7 | |
| 20260505233001 | 8 | 0.0 | 0.0 | 0.00 | 0.00 | 0.00 | 66 | 920.7 | |
| 20260505232501 | 8 | 0.0 | 0.0 | 0.00 | 0.00 | 0.00 | 66 | 920.8 | |
| 20260505232001 | 8 | 0.0 | 0.0 | 0.00 | 0.00 | 0.00 | 66 | 920.8 | |
| 20260505231501 | 8 | 0.0 | 0.0 | 0.00 | 0.00 | 0.00 | 66 | 920.8 | |
| 20260505231001 | 8 | 0.0 | 0.0 | 0.00 | 0.00 | 0.00 | 65 | 920.7 | |
| 20260505230501 | 8 | 0.0 | 0.0 | 0.00 | 0.00 | 0.00 | 65 | 920.8 | |
| 20260505230001 | 8 | 0.0 | 0.0 | 0.00 | 0.00 | 0.00 | 65 | 920.8 | |
| 20260505225501 | 8 | 0.0 | 0.0 | 0.00 | 0.00 | 0.00 | 64 | 920.8 | |
| 20260505225001 | 8 | 0.0 | 0.0 | 0.00 | 0.00 | 0.00 | 64 | 920.7 | |
| 20260505224501 | 9 | 0.0 | 0.0 | 0.00 | 0.00 | 0.00 | 63 | 920.8 | |
| 20260505224001 | 9 | 0.0 | 0.0 | 0.00 | 0.00 | 0.00 | 63 | 920.7 | |
| 20260505223501 | 9 | 0.0 | 0.0 | 0.00 | 0.00 | 0.00 | 63 | 920.7 | |
| 20260505223001 | 9 | 0.0 | 0.0 | 0.00 | 0.00 | 0.00 | 63 | 920.7 | |
| 20260505222501 | 9 | 0.0 | 0.0 | 0.00 | 0.00 | 0.00 | 63 | 920.7 | |
| 20260505222001 | 10 | 0.0 | 0.0 | 0.00 | 0.00 | 0.00 | 62 | 920.7 | |
| 20260505221501 | 9 | 0.0 | 0.0 | 0.00 | 0.00 | 0.00 | 63 | 920.6 | |
| 20260505221001 | 9 | 0.0 | 0.0 | 0.00 | 0.00 | 0.00 | 62 | 920.6 | |
| 20260505220501 | 9 | 0.0 | 0.0 | 0.00 | 0.00 | 0.00 | 62 | 920.6 | |
| 20260505220001 | 9 | 0.0 | 0.0 | 0.00 | 0.00 | 0.00 | 62 | 920.4 | |
| 20260505215501 | 9 | 0.0 | 0.0 | 0.00 | 0.00 | 0.00 | 62 | 920.4 | |
| 20260505215001 | 10 | 0.0 | 0.0 | 0.00 | 0.00 | 0.00 | 61 | 920.4 | |
| 20260505214501 | 10 | 0.0 | 0.0 | 0.00 | 0.00 | 0.00 | 61 | 920.3 | |
| 20260505214001 | 10 | 0.0 | 0.0 | 0.00 | 0.00 | 0.00 | 61 | 920.3 | |
| 20260505213501 | 10 | 0.0 | 0.0 | 0.00 | 0.00 | 0.00 | 61 | 920.3 | |
| 20260505213001 | 10 | 0.0 | 0.0 | 0.00 | 0.00 | 0.00 | 60 | 920.2 | |
| 20260505212501 | 10 | 0.0 | 0.0 | 0.00 | 0.00 | 0.00 | 59 | 920.2 | |
| 20260505212001 | 10 | 0.0 | 0.0 | 0.00 | 0.00 | 0.00 | 60 | 920.2 | |
| 20260505211501 | 10 | 0.0 | 0.0 | 0.00 | 0.00 | 0.00 | 59 | 920.1 | |
| 20260505211001 | 10 | 0.0 | 0.0 | 0.00 | 0.00 | 0.00 | 59 | 920.1 | |
| 20260505210501 | 11 | 0.0 | 0.0 | 0.00 | 0.00 | 0.00 | 57 | 920.0 | |
| 20260505210001 | 11 | 0.0 | 0.0 | 0.00 | 0.00 | 0.00 | 58 | 920.0 | |
| 20260505205501 | 11 | 0.0 | 0.0 | 0.00 | 0.00 | 0.00 | 58 | 920.0 | |
| 20260505205001 | 11 | 0.0 | 0.0 | 0.00 | 0.00 | 0.00 | 57 | 919.9 | |
| 20260505204501 | 11 | 0.0 | 0.0 | 0.00 | 0.00 | 0.00 | 57 | 919.8 | |
| 20260505204001 | 11 | 0.0 | 0.0 | 0.00 | 0.00 | 0.00 | 57 | 919.8 | |
| 20260505203501 | 11 | 0.0 | 0.0 | 0.00 | 0.00 | 0.00 | 57 | 919.8 | |
| 20260505203001 | 12 | 0.0 | 0.0 | 0.00 | 0.00 | 0.00 | 55 | 919.8 | |
| 20260505202501 | 12 | 0.0 | 0.0 | 0.00 | 0.00 | 0.00 | 54 | 919.7 | |
| 20260505202001 | 12 | 0.0 | 0.0 | 0.00 | 0.00 | 0.00 | 54 | 919.7 | |
| 20260505201501 | 12 | 0.0 | 0.0 | 0.00 | 0.00 | 0.00 | 54 | 919.7 | |
| 20260505201001 | 12 | 0.0 | 0.0 | 0.00 | 0.00 | 0.00 | 54 | 919.8 | |
| 20260505200501 | 12 | 0.0 | 0.0 | 0.00 | 0.00 | 0.00 | 54 | 919.8 | |
| 20260505200001 | 12 | 0.0 | 0.0 | 0.00 | 0.00 | 0.00 | 53 | 919.7 | |
| 20260505195501 | 12 | 0.0 | 0.0 | 0.00 | 0.00 | 0.00 | 54 | 919.8 | |
| 20260505195001 | 12 | 0.0 | 0.0 | 0.00 | 0.00 | 0.00 | 53 | 919.7 | |
| 20260505194501 | 12 | 0.0 | 0.0 | 0.00 | 0.00 | 0.00 | 53 | 919.6 | |
| 20260505194001 | 12 | 0.0 | 0.0 | 0.00 | 0.00 | 0.00 | 54 | 919.7 | |
| 20260505193501 | 12 | 0.0 | 0.0 | 0.00 | 0.00 | 0.00 | 54 | 919.7 | |
| 20260505193001 | 12 | 0.0 | 0.0 | 0.00 | 0.00 | 0.00 | 54 | 919.6 | |
| 20260505192501 | 12 | 0.0 | 0.0 | 0.00 | 0.00 | 0.00 | 54 | 919.5 | |
| 20260505192001 | 12 | 0.0 | 0.0 | 0.00 | 0.00 | 0.00 | 53 | 919.4 | |
| 20260505191501 | 13 | 0.0 | 0.0 | 0.00 | 0.00 | 0.00 | 52 | 919.5 | |
| 20260505191001 | 13 | 0.0 | 0.0 | 0.00 | 0.00 | 0.00 | 52 | 919.6 | |
| 20260505190501 | 13 | 0.0 | 0.0 | 0.00 | 0.00 | 0.00 | 51 | 919.5 | |
| 20260505190001 | 13 | 0.0 | 0.0 | 0.00 | 0.00 | 0.00 | 50 | 919.4 | |
| 20260505185501 | 13 | 0.0 | 0.0 | 0.00 | 0.00 | 0.00 | 50 | 919.4 | |
| 20260505185001 | 14 | 0.0 | 0.0 | 0.00 | 0.00 | 0.00 | 49 | 919.3 | |
| 20260505184501 | 13 | 0.0 | 0.0 | 0.00 | 0.00 | 0.00 | 50 | 919.2 | |
| 20260505184001 | 14 | 0.0 | 0.0 | 0.00 | 0.00 | 0.00 | 49 | 919.2 | |
| 20260505183501 | 14 | 0.0 | 0.0 | 0.00 | 0.00 | 0.00 | 49 | 919.2 | |
| 20260505183001 | 14 | 0.0 | 0.0 | 0.00 | 0.00 | 0.00 | 48 | 919.2 | |
| 20260505182501 | 15 | 0.0 | 0.0 | 0.00 | 0.00 | 0.00 | 47 | 919.0 | |
| 20260505182001 | 15 | 0.0 | 0.0 | 0.00 | 0.00 | 0.00 | 46 | 918.9 | |
| 20260505181501 | 15 | 0.0 | 0.0 | 0.00 | 0.00 | 0.00 | 46 | 918.8 | |
| 20260505181001 | 15 | 0.0 | 0.0 | 0.00 | 0.00 | 0.00 | 46 | 918.9 | |
| 20260505180501 | 15 | 0.0 | 0.0 | 0.00 | 0.00 | 0.00 | 45 | 918.9 | |
| 20260505180001 | 16 | 0.0 | 0.0 | 0.00 | 0.00 | 0.00 | 44 | 918.9 | |
| 20260505175501 | 16 | 0.0 | 0.0 | 0.00 | 0.00 | 0.00 | 45 | 918.9 | |
| 20260505175001 | 16 | 0.0 | 0.0 | 0.00 | 0.00 | 0.00 | 45 | 918.9 | |
| 20260505174501 | 16 | 0.0 | 0.0 | 0.00 | 0.00 | 0.00 | 44 | 919.0 | |
| 20260505174001 | 16 | 0.0 | 0.0 | 0.00 | 0.00 | 0.00 | 44 | 919.0 | |
| 20260505173501 | 16 | 0.0 | 0.0 | 0.00 | 0.00 | 0.00 | 44 | 918.9 | |
| 20260505173001 | 16 | 0.0 | 0.0 | 0.00 | 0.00 | 0.00 | 43 | 919.0 | |
| 20260505172501 | 17 | 0.0 | 0.0 | 0.00 | 0.00 | 0.00 | 42 | 918.9 | |
| 20260505172001 | 17 | 0.0 | 0.0 | 0.00 | 0.00 | 0.00 | 42 | 919.0 | |
| 20260505171501 | 17 | 0.0 | 0.0 | 0.00 | 0.00 | 0.00 | 42 | 919.0 | |
| 20260505171001 | 17 | 0.0 | 0.0 | 0.00 | 0.00 | 0.00 | 41 | 919.0 | |
| 20260505170501 | 17 | 0.0 | 0.0 | 0.00 | 0.00 | 0.00 | 40 | 918.9 | |
| 20260505170001 | 18 | 0.0 | 0.0 | 0.00 | 0.00 | 0.00 | 38 | 919.0 | |
| 20260505165501 | 19 | 0.0 | 0.0 | 0.00 | 0.00 | 0.00 | 37 | 918.8 | |
| 20260505165001 | 19 | 0.0 | 0.0 | 0.00 | 0.00 | 0.00 | 38 | 918.9 | |
| 20260505164501 | 19 | 0.0 | 0.0 | 0.00 | 0.00 | 0.00 | 37 | 918.9 | |
| 20260505164001 | 18 | 0.0 | 0.0 | 0.00 | 0.00 | 0.00 | 39 | 919.0 | |
| 20260505163501 | 18 | 0.0 | 0.0 | 0.00 | 0.00 | 0.00 | 39 | 919.0 | |
| 20260505163001 | 18 | 0.0 | 0.0 | 0.00 | 0.00 | 0.00 | 38 | 919.1 | |
| 20260505162501 | 18 | 0.0 | 0.0 | 0.00 | 0.00 | 0.00 | 38 | 919.2 | |
| 20260505162001 | 18 | 0.0 | 0.0 | 0.00 | 0.00 | 0.00 | 37 | 919.1 | |
| 20260505161501 | 20 | 0.0 | 0.0 | 0.00 | 0.00 | 0.00 | 36 | 919.2 | |
| 20260505161001 | 20 | 0.0 | 0.0 | 0.00 | 0.00 | 0.00 | 34 | 919.1 | |
| 20260505160501 | 21 | 0.0 | 0.0 | 0.00 | 0.00 | 0.00 | 34 | 919.1 |